Location: Ferchesar
(52.6477°N, 12.4298°E)
Time: 00:58:00
(UTC+01:00)

Vanguard 2 Rocket - Pass Details

Date: 04 December 2021
Orbit: 554 x 3325 km, 32.9° (Epoch: 21 January)

Event Time Altitude Azimuth Distance (km) Brightness Sun altitude
Rises 18:42:53 0° 218° (SW) 3,507 10.6 -23.9°
Reaches altitude 10° 18:46:00 10° 199° (SSW) 2,905 9.7 -24.4°
Maximum altitude 18:50:33 18° 159° (SSE) 2,871 9.3 -25.0°
Enters shadow 18:52:46 16° 142° (SE) 3,210 9.4 -25.4°
Drops below altitude 10° 18:56:42 10° 122° (ESE) 4,126 - -26.0°
Sets 19:02:30 0° 107° (ESE) 5,733 - -26.8°
